Tracking 26940 objects as of 28-Jan-2023
HD Live streaming from Space Station
objects crossing your sky now

FORMOSAT 3E

Track FORMOSAT 3E now!
10-day predictions
FORMOSAT 3E is classified as:


NORAD ID: 29051
Int'l Code: 2006-011E
Perigee: 754.0 km
Apogee: 848.6 km
Inclination: 72.0 °
Period: 100.8 minutes
Semi major axis: 7172 km
RCS: 0.58 m2 (medium)
Launch date: April 15, 2006
Source: Taiwan (Republic of China) (ROC)
Launch site: AIR FORCE WESTERN TEST RANGE (AFWTR)
Your satellite tracking list
Your tracking list is empty




NASA's NSSDC Master Catalog

Two Line Element Set (TLE):
1 29051U 06011E   23027.79600145  .00000729  00000-0  29561-3 0  9995
2 29051  72.0059 308.7174 0065908  73.8995 286.9384 14.29273032878467
Source of the keplerian elements: AFSPC